Flag for Brazil Weather past 2 weeks in Rio Branco, Acre, Brazil

Now
91 °F

Passing clouds.


Feels Like: 94 °F
Forecast: 70 / 93 °F
Wind: 5 mph from North

Location: Rio Branco Airport

Current Time: Aug 4, 2015 at 11:22:06 AM

Latest Report: Aug 4, 2015 at 11:00 AM


Visibility: N/A

Pressure: 29.98 "Hg

Humidity: 44%

Dew point: 66 °F

Location of Rio BrancoLocation

Historic Weather in Rio Branco — Graph

°F

Rio Branco temperature yesterday

Maximum temperature yesterday: 93 °F (at 1:00 PM)
Minimum temperature yesterday: 72 °F (at 3:00 AM)
Average temperature yesterday: 80 °F

Past Weeks' High & Low Weather Summary

 TemperatureHumidityPressure
High95 °F (Jul 29, 1:00 PM)100% (Jul 26, 6:00 AM)30.09 "Hg (Jul 26, 6:00 AM)
Low61 °F (Jul 22, 6:00 AM)30% (Jul 31, 3:00 PM)29.80 "Hg (Aug 2, 3:00 PM)
Average79 °F72%29.94 "Hg
* Reported Jul 20 10:00 AM — Aug 4 10:00 AM, Rio Branco, Weather by CustomWeather, © 2015

Note: Actual official high and low records may vary slightly from our data, if they occured in-between our weather recording intervals... More about our weather records

Advertising

Rio Branco weather history for previous 24 hours

 ConditionsComfort  
Time TempWeatherWind HumidityBarometerVisibility
10:00 AM
Tue, Aug 4
90 °FPassing clouds.6 mph52%29.98 "HgN/A
9:00 AM88 °FSunny.3 mph59%30.01 "Hg10 mi
8:00 AM82 °FSunny.1 mph70%29.98 "Hg10 mi
7:00 AM75 °FSunny.2 mph89%29.95 "Hg10 mi
6:00 AM72 °FClear.No wind88%29.95 "Hg10 mi
5:00 AM70 °FClear.2 mph94%29.92 "Hg10 mi
4:00 AM72 °FClear.No wind94%29.89 "Hg10 mi
3:00 AM72 °FClear.No wind94%29.89 "Hg10 mi
2:00 AM72 °FClear.2 mph94%29.92 "Hg10 mi
1:00 AM73 °FClear.2 mph89%29.92 "Hg10 mi
12:00 AM73 °FClear.2 mph89%29.92 "Hg10 mi
11:00 PM
Mon, Aug 3
75 °FClear.2 mph89%29.92 "Hg2 mi
10:00 PM77 °FClear.2 mph83%29.92 "Hg10 mi
9:00 PM77 °FClear.No wind83%29.92 "Hg10 mi
8:00 PM77 °FClear.No wind83%29.89 "Hg10 mi
7:00 PM79 °FPassing clouds.2 mph79%29.86 "HgN/A
6:00 PM81 °FScattered clouds.2 mph74%29.83 "HgN/A
5:00 PM84 °FScattered clouds.6 mph66%29.83 "HgN/A
4:00 PM91 °FScattered clouds.10 mph49%29.83 "HgN/A
3:00 PM91 °FScattered clouds.9 mph49%29.83 "HgN/A
2:00 PM91 °FPartly sunny.6 mph46%29.86 "HgN/A
1:00 PM93 °FPartly sunny.7 mph47%29.89 "HgN/A
12:00 PM90 °FPartly sunny.10 mph52%29.92 "HgN/A
11:00 AM90 °FPartly sunny.8 mph55%29.92 "HgN/A
Weather by CustomWeather, © 2015

See weather overviewHow to use our weather pages